« Back
NWS Peachtree City, Ga » Text Product » GA Regional Weather Roundup


Printer-friendly Version
Current Version              Previous Versions:   1  2  3  4  5  6  7  8  9  

Regional Weather Roundup

575
ASUS42 KFFC 241903
RWRGA
WEATHER ROUNDUP FOR GEORGIA
NATIONAL WEATHER SERVICE PEACHTREE CITY GA
300 PM EDT SUN MAY 24 2015

NOTE: "FAIR" INDICATES FEW OR NO CLOUDS BELOW 12,000 FEET WITH NO
SIGNIFICANT WEATHER AND/OR OBSTRUCTIONS TO VISIBILITY.

* = USE WITH CAUTION. THE STATIONS MARKED WITH AN ASTERISK MAY NOT
REPORT WEATHER SUCH AS PRECIPITATION, FOG, OR THUNDER AND ARE NOT
QUALITY CONTROLLED BY NWS.

THE REMARK "TC" DENOTES TEMPERATURE READING IN DEGREES CELSIUS.

GAZ001>058-242000-
NORTH GEORGIA

CITY           SKY/WX    TMP DP  RH WIND       PRES   REMARKS
ATLANTA        MOSUNNY   82  59  45 SE10G22   30.28F
ATHENS         MOSUNNY   82  56  40 VRB6      30.30F
CHAMBLEE       PTSUNNY   82  60  47 S9        30.28F
PEACHTREE CITY CLOUDY    81  59  47 SE9       30.27F
ROME           CLOUDY    82  61  48 SE12      30.25F
WEST ATLANTA   PTSUNNY   81  58  45 SE9       30.27F
GAINESVILLE    PTSUNNY   79  57  46 VRB6      30.33F
CARTERSVILLE   PTSUNNY   81  59  47 SE9       30.27F


CITY           SKY/WX    TMP DP  RH WIND       PRES   REMARKS
DALTON*        PTSUNNY   79  59  50 SE13      30.27F
LAWRENCEVILLE* PTSUNNY   81  57  44 E9G17     30.29F
KENNESAW*      PTSUNNY   82  61  47 SE12      30.28F
BLAIRSVILLE*     N/A     76  14   9 S12G18    30.33F
$$

GAZ059>098-102>109-242000-
CENTRAL GEORGIA

CITY           SKY/WX    TMP DP  RH WIND       PRES   REMARKS
AUGUSTA-BUSH   MOSUNNY   85  55  35 VRB5      30.29F
AUGUSTA-DANIEL SUNNY     84  54  35 VRB7      30.31F
COLUMBUS       CLOUDY    82  63  52 SE12      30.23F
MACON          MOSUNNY   86  60  41 SE9G18    30.26F


CITY           SKY/WX    TMP DP  RH WIND       PRES   REMARKS
LAGRANGE*      CLOUDY    85  71  61 SE9       30.25F HX  90
SYLVANIA*      MOSUNNY   85  61  45 SE7       30.31F
MILLEDGEVILLE* MOSUNNY   86  61  42 E7        30.27F
$$

GAZ099>101-110>166-242000-
SOUTH GEORGIA

CITY           SKY/WX    TMP DP  RH WIND       PRES   REMARKS
SAVANNAH       PTSUNNY   82  59  45 E13G25    30.31F
VALDOSTA       PTSUNNY   88  61  40 SE8       30.22F
ALMA           PTSUNNY   83  58  42 E7        30.26F
ALBANY         PTSUNNY   90  62  39 E9        30.23F HX  90
HUNTER AFB     SUNNY     82  64  54 E17       30.29F
MOODY AFB      MOSUNNY   87  61  41 E10       30.22F
BRUNSWICK      PTSUNNY   81  63  54 NE12      30.30F


CITY           SKY/WX    TMP DP  RH WIND       PRES   REMARKS
BAINBRIDGE*    SUNNY     91  72  52 E10       30.20F HX  98
MOULTRIE*      MOSUNNY   88  61  40 E8        30.23F
VIDALIA*       PTSUNNY   84  55  37 E13       30.27F
WAYCROSS*      MOSUNNY   86  62  45 SE9       30.25F
DOUGLAS*       MOSUNNY   88  59  37 E6        30.25F
$$



USA.gov is the U.S. government's official web portal to all federal, state and local government web resources and services.